Location: Los Gatos B&B
(42.6926°N, 77.0646°W)
Time: 11:26:17
(UTC-05:00)

Amateur Radio Satellites - All Passes

Search period start: 26 January 2015 10:56
Search period end: 27 January 2015 10:56
Location: Los Gatos B&B, 42.6926°N, 77.0646°W

Satellite Date Start Highest point End Downlink Frequencies (MHz)
Time Altitude Azimuth
HO-68 26 Jan 11:01:48 11:07:08 22° 303° (WNW) 11:12:14 435.675
DX 1 26 Jan 11:01:52 11:05:51 34° 291° (WNW) 11:09:48 434.975-435.025
ESTCUBE 1 26 Jan 11:01:59 11:06:16 41° 98° (E) 11:10:33 437.505/2401.250
FUNcube-1 26 Jan 11:06:15 11:10:22 36° 290° (WNW) 11:14:21 145.935
AISAT 26 Jan 11:09:52 11:14:23 72° 286° (WNW) 11:18:52 437.250
TISAT 1 26 Jan 11:12:35 11:13:53 11° 88° (E) 11:15:24 437.305
NANOSAT C BR1 26 Jan 11:13:51 11:17:18 23° 267° (W) 11:20:42 145.865
UNISAT 6 26 Jan 11:15:22 11:18:27 16° 271° (W) 11:21:20 437.425
UWE-3 26 Jan 11:18:14 11:21:57 24° 293° (WNW) 11:25:28 435.000/436.395/437.385
HUMSAT D 26 Jan 11:22:23 11:26:25 40° 288° (WNW) 11:30:21 437.325/437.525
QB50P2 26 Jan 11:26:56 11:29:49 17° 269° (W) 11:32:35 145.880/145.840
50 SAT 26 Jan 11:29:28 11:33:21 42° 288° (WNW) 11:37:09 437.505
QB50P1 26 Jan 11:38:20 11:40:31 13° 271° (W) 11:42:30 145.935-145.965
VELOX 1 26 Jan 11:40:16 11:44:24 36° 290° (WNW) 11:48:30 145.980
GONETS M04 26 Jan 11:41:06 11:48:37 32° 67° (ENE) 11:56:17
VERMONT LUNAR 26 Jan 11:43:36 11:47:02 57° 173° (S) 11:50:31 437.305
AIST 2 26 Jan 11:45:41 11:49:29 30° 47° (NE) 11:53:16 435.215
SPROUT 26 Jan 11:57:28 12:01:31 37° 97° (E) 12:05:34 437.525
CUBEBUG 1 26 Jan 11:58:39 12:03:00 53° 287° (WNW) 12:07:20 437.445
SO-50 26 Jan 12:00:43 12:05:10 47° 310° (NW) 12:09:46 436.795
PCSat 26 Jan 12:02:49 12:04:40 12° 32° (NNE) 12:06:43 145.827
BEESAT 2 26 Jan 12:07:12 12:11:24 80° 239° (WSW) 12:15:32 435.950
AIST 1 26 Jan 12:10:36 12:14:46 55° 281° (W) 12:18:58
Oscar 19 26 Jan 12:13:13 12:18:05 43° 70° (ENE) 12:23:02 437.125/150
PHONESAT 2.4 26 Jan 12:22:45 12:26:20 59° 175° (S) 12:29:57 2401.200-2431.200
ITAMSAT 1 26 Jan 12:23:17 12:26:58 21° 63° (ENE) 12:30:48 435.822/435.867
BEESAT 3 26 Jan 12:24:56 12:28:56 45° 242° (WSW) 12:32:51 437.485
ESTCUBE 1 26 Jan 12:39:30 12:42:55 21° 294° (WNW) 12:46:15 437.505/2401.250
TISAT 1 26 Jan 12:45:57 12:50:15 66° 286° (WNW) 12:54:29 437.305
AO-7 26 Jan 12:51:17 12:54:42 14° 44° (NE) 12:58:32 29.400- 29.500
RS-15 26 Jan 12:52:55 13:03:26 43° 38° (NE) 13:14:29 29.354- 29.394
Gurwin Techsat 1B 26 Jan 13:00:04 13:04:34 30° 67° (ENE) 13:09:10 435.225
SWISSCUBE 26 Jan 13:15:28 13:19:57 40° 98° (E) 13:24:28 437.505
VERMONT LUNAR 26 Jan 13:21:35 13:25:01 51° 190° (S) 13:28:28 437.305
AIST 2 26 Jan 13:24:17 13:28:07 31° 244° (WSW) 13:31:49 435.215
BEESAT 26 Jan 13:31:48 13:36:30 54° 100° (E) 13:41:11 436.000
ITUPSAT 1 26 Jan 13:33:35 13:38:18 55° 100° (E) 13:43:00 437.325
SPROUT 26 Jan 13:34:04 13:37:26 21° 293° (WNW) 13:40:40 437.525
GONETS M04 26 Jan 13:37:33 13:46:00 58° 268° (W) 13:54:24
PCSat 26 Jan 13:44:09 13:49:29 52° 55° (NE) 13:54:46 145.827
SO-50 26 Jan 13:45:47 13:46:59 11° 332° (NNW) 13:48:03 436.795
Oscar 19 26 Jan 13:53:25 13:57:40 24° 267° (W) 14:01:49 437.125/150
HORYU 2 26 Jan 13:56:36 14:00:29 30° 69° (ENE) 14:04:26 437.375
ITAMSAT 1 26 Jan 14:01:03 14:06:07 54° 260° (W) 14:11:14 435.822/435.867
PHONESAT 2.4 26 Jan 14:01:12 14:04:46 50° 191° (S) 14:08:19 2401.200-2431.200
DANDE 26 Jan 14:30:32 14:36:10 24° 59° (ENE) 14:40:58 436.750
AO-7 26 Jan 14:37:47 14:45:49 54° 65° (ENE) 14:53:55 29.400- 29.500
Gurwin Techsat 1B 26 Jan 14:39:33 14:44:28 37° 264° (W) 14:49:22 435.225
KKS-1 26 Jan 14:45:02 14:49:31 64° 101° (E) 14:53:58 437.445
STARS 26 Jan 14:46:03 14:50:18 43° 98° (E) 14:54:32 437.465
SWISSCUBE 26 Jan 14:53:49 14:57:38 23° 294° (WNW) 15:01:21 437.505
VERMONT LUNAR 26 Jan 15:00:03 15:02:46 20° 206° (SSW) 15:05:27 437.305
JAS-2 26 Jan 15:01:08 15:05:28 25° 66° (ENE) 15:09:44 435.910
AUBIESAT-1 26 Jan 15:04:20 15:06:49 20° 100° (E) 15:09:25 437.475
RS-15 26 Jan 15:05:25 15:16:41 69° 243° (WSW) 15:28:25 29.354- 29.394
BEESAT 26 Jan 15:10:43 15:14:00 18° 296° (WNW) 15:17:07 436.000
ITUPSAT 1 26 Jan 15:12:35 15:15:50 18° 296° (WNW) 15:18:56 437.325
CUSAT 1 26 Jan 15:16:19 15:23:04 58° 73° (ENE) 15:28:07 437.405
PCSat 26 Jan 15:28:19 15:32:35 23° 252° (WSW) 15:36:43 145.827
HORYU 2 26 Jan 15:33:16 15:37:10 27° 265° (W) 15:41:00 437.375
PHONESAT 2.4 26 Jan 15:40:12 15:42:57 20° 207° (SSW) 15:45:39 2401.200-2431.200
O/OREOS (USA 219) 26 Jan 15:53:46 15:56:47 18° 101° (ESE) 15:59:56 437.305
MOZHAYETS 4 26 Jan 16:02:12 16:05:13 18° 90° (E) 16:08:23
M-CUBED/EXP-1 PRIME 26 Jan 16:02:45 16:06:00 54° 291° (WNW) 16:09:17 437.505
CUTE-I 26 Jan 16:03:19 16:05:56 14° 59° (ENE) 16:08:48 437.470
DANDE 26 Jan 16:13:24 16:20:31 60° 266° (W) 16:25:49 436.750
KKS-1 26 Jan 16:23:14 16:25:43 14° 297° (WNW) 16:28:00 437.445
STARS 26 Jan 16:23:16 16:26:31 20° 295° (WNW) 16:29:40 437.465
AO-7 26 Jan 16:31:21 16:38:57 36° 264° (W) 16:46:26 29.400- 29.500
AUBIESAT-1 26 Jan 16:39:10 16:41:47 22° 296° (WNW) 16:44:24 437.475
JAS-2 26 Jan 16:45:07 16:50:29 43° 261° (W) 16:55:29 435.910
CUSAT 1 26 Jan 17:00:35 17:05:15 20° 279° (W) 17:08:59 437.405
Cubesat XI-IV 26 Jan 17:19:13 17:24:28 65° 73° (ENE) 17:29:46 437.490
RS-15 26 Jan 17:21:13 17:27:24 15° 261° (W) 17:32:43 29.354- 29.394
PRISM 26 Jan 17:30:20 17:32:29 14° 90° (E) 17:34:49 437.425
O/OREOS (USA 219) 26 Jan 17:31:35 17:35:53 44° 298° (WNW) 17:40:14 437.305
MOZHAYETS 4 26 Jan 17:38:23 17:42:46 46° 288° (WNW) 17:47:07
CUTE-I 26 Jan 17:40:04 17:45:23 85° 255° (WSW) 17:50:46 437.470
CUBESAT XI-V 26 Jan 17:45:53 17:48:52 17° 90° (E) 17:52:01 437.345
HO-68 26 Jan 17:59:15 18:02:17 14° 51° (NE) 18:05:40 435.675
STRAND 1 26 Jan 18:15:59 18:20:08 25° 93° (E) 18:24:24 437.568
YUBILEINY 26 Jan 18:42:27 18:49:09 27° 83° (E) 18:56:08 435.215
SO-50 26 Jan 18:51:10 18:55:27 29° 44° (NE) 18:59:48 436.795
Cubesat XI-IV 26 Jan 19:01:41 19:05:08 17° 271° (W) 19:08:22 437.490
PRISM 26 Jan 19:04:21 19:08:22 49° 288° (WNW) 19:12:22 437.425
BRITE-PL 26 Jan 19:11:49 19:16:11 32° 67° (ENE) 19:20:55 437.365/2234.400
COMPASS 1 26 Jan 19:12:19 19:14:29 14° 65° (ENE) 19:16:49 437.405
CANX-2 26 Jan 19:16:17 19:19:40 24° 68° (ENE) 19:23:08 2200.000
CUBESAT XI-V 26 Jan 19:22:08 19:26:41 51° 287° (WNW) 19:31:13 437.345
GOMX 1 26 Jan 19:22:36 19:26:51 29° 67° (ENE) 19:31:25 467.674
CUTE-I 26 Jan 19:25:24 19:26:25 10° 275° (W) 19:27:03 437.470
Oscar 11 26 Jan 19:34:09 19:35:21 11° 62° (ENE) 19:36:47 145.826/435.025
AAUSAT CUBESAT 2 26 Jan 19:39:38 19:42:57 24° 68° (ENE) 19:46:21 437.432
CUTE 1.7 + AOD 2 26 Jan 19:40:14 19:44:11 38° 72° (ENE) 19:48:12 437.475
HO-68 26 Jan 19:41:46 19:48:48 64° 69° (ENE) 19:55:53 435.675
DOVE 4 26 Jan 19:48:26 19:52:58 36° 69° (ENE) 19:57:47 437.250
DELFI C3 26 Jan 19:53:14 19:55:07 13° 65° (ENE) 19:57:11 145.870
CUBEBUG 2 26 Jan 19:54:41 19:57:16 15° 63° (ENE) 20:00:04 437.445
STRAND 1 26 Jan 19:54:41 19:59:31 41° 291° (WNW) 20:04:19 437.568
CINEMA 3 26 Jan 19:57:52 20:01:55 27° 67° (ENE) 20:06:08 145.822/145.860
UKube-1 26 Jan 20:06:32 20:08:59 15° 64° (ENE) 20:11:36 .
SEEDS 26 Jan 20:14:42 20:18:57 78° 77° (ENE) 20:23:14 437.485
ZACube-1 26 Jan 20:14:59 20:17:46 16° 64° (ENE) 20:20:43 437.345
DX 1 26 Jan 20:22:45 20:26:07 23° 67° (ENE) 20:29:37 434.975-435.025
FUNcube-1 26 Jan 20:27:16 20:30:39 21° 66° (ENE) 20:34:10 145.935
SO-50 26 Jan 20:31:30 20:36:11 43° 243° (WSW) 20:40:49 436.795
AISAT 26 Jan 20:35:05 20:36:53 13° 62° (ENE) 20:38:55 437.250
YUBILEINY 26 Jan 20:36:42 20:45:20 67° 282° (WNW) 20:54:01 435.215
UWE-3 26 Jan 20:39:09 20:43:19 33° 69° (ENE) 20:47:33 435.000/436.395/437.385
HUMSAT D 26 Jan 20:41:00 20:43:35 16° 65° (ENE) 20:46:20 437.325/437.525
50 SAT 26 Jan 20:44:58 20:46:39 13° 64° (ENE) 20:48:31 437.505
COMPASS 1 26 Jan 20:45:38 20:49:49 56° 260° (W) 20:53:59 437.405
BRITE-PL 26 Jan 20:50:10 20:54:39 33° 267° (W) 20:59:26 437.365/2234.400
CANX-2 26 Jan 20:51:36 20:55:30 32° 264° (W) 20:59:22 2200.000
GOMX 1 26 Jan 21:00:13 21:04:51 37° 265° (W) 21:09:44 467.674
VELOX 1 26 Jan 21:03:05 21:06:31 23° 66° (ENE) 21:10:04 145.980
Oscar 11 26 Jan 21:06:38 21:11:00 78° 258° (WSW) 21:15:22 145.826/435.025
AAUSAT CUBESAT 2 26 Jan 21:14:44 21:18:31 31° 264° (W) 21:22:15 437.432
CUTE 1.7 + AOD 2 26 Jan 21:17:06 21:20:19 20° 268° (W) 21:23:24 437.475
CUBEBUG 1 26 Jan 21:21:31 21:23:52 15° 64° (ENE) 21:26:23 437.445
DELFI C3 26 Jan 21:25:56 21:29:58 56° 260° (W) 21:34:00 145.870
DOVE 4 26 Jan 21:26:30 21:30:50 28° 268° (W) 21:35:17 437.250
CUBEBUG 2 26 Jan 21:28:45 21:33:28 68° 259° (W) 21:38:16 437.445
HO-68 26 Jan 21:31:20 21:37:07 25° 268° (W) 21:42:42 435.675
UNISAT 6 26 Jan 21:31:34 21:31:57 10° 86° (E) 21:32:38 437.425
CINEMA 3 26 Jan 21:34:24 21:38:58 38° 264° (W) 21:43:38 145.822/145.860
UKube-1 26 Jan 21:40:31 21:44:46 55° 260° (W) 21:49:02 .
ZACube-1 26 Jan 21:49:12 21:53:44 57° 260° (W) 21:58:19 437.345
DX 1 26 Jan 21:58:16 22:02:15 34° 263° (W) 22:06:13 434.975-435.025
POLYITAN 1 26 Jan 21:59:22 22:01:07 13° 88° (E) 22:03:06 437.675
FUNcube-1 26 Jan 22:02:23 22:06:45 42° 263° (W) 22:11:09 145.935
ESTCUBE 1 26 Jan 22:02:32 22:06:44 41° 71° (ENE) 22:10:59 437.505/2401.250
ANTELSAT 26 Jan 22:04:37 22:08:15 24° 93° (E) 22:11:52 437.575/2403.000
TISAT 1 26 Jan 22:07:06 22:07:55 11° 62° (ENE) 22:08:58 437.305
AISAT 26 Jan 22:08:33 22:12:59 73° 257° (WSW) 22:17:30 437.250
BUGSAT 1 26 Jan 22:13:09 22:15:12 14° 89° (E) 22:17:28 437.445
TIGRISAT 26 Jan 22:13:53 22:17:49 30° 95° (E) 22:21:42 435.000
HUMSAT D 26 Jan 22:14:45 22:19:01 52° 260° (W) 22:23:18 437.325/437.525
UWE-3 26 Jan 22:15:54 22:19:53 27° 267° (W) 22:23:51 435.000/436.395/437.385
AIST 1 26 Jan 22:17:02 22:21:03 36° 76° (ENE) 22:25:06
50 SAT 26 Jan 22:17:13 22:21:19 63° 259° (W) 22:25:27 437.505
POPSAT HIP 1 26 Jan 22:19:47 22:23:01 21° 92° (E) 22:26:20 437.405
DUCHIFAT 1 26 Jan 22:24:02 22:27:26 23° 93° (E) 22:30:53 145.980
VELOX 1 26 Jan 22:38:52 22:42:57 35° 263° (W) 22:47:02 145.980
YUBILEINY 26 Jan 22:40:00 22:44:22 14° 307° (NW) 22:48:11 435.215
SPROUT 26 Jan 22:52:37 22:56:26 32° 70° (ENE) 23:00:19 437.525
CUBEBUG 1 26 Jan 22:55:33 22:59:50 57° 260° (W) 23:04:09 437.445
NANOSAT C BR1 26 Jan 22:57:22 23:01:37 53° 100° (E) 23:05:49 145.865
UNISAT 6 26 Jan 23:04:56 23:09:28 76° 283° (WNW) 23:13:50 437.425
ISS 26 Jan 23:06:49 23:10:05 70° 144° (SE) 23:13:23 145.825
QB50P2 26 Jan 23:09:59 23:14:19 76° 101° (E) 23:18:37 145.880/145.840
QB50P1 26 Jan 23:20:21 23:24:42 85° 282° (WNW) 23:28:59 145.935-145.965
POLYITAN 1 26 Jan 23:33:17 23:37:34 60° 286° (WNW) 23:41:48 437.675
TISAT 1 26 Jan 23:38:57 23:43:11 80° 258° (WSW) 23:47:28 437.305
ESTCUBE 1 26 Jan 23:40:33 23:43:51 19° 268° (W) 23:47:02 437.505/2401.250
ANTELSAT 26 Jan 23:41:06 23:45:08 32° 291° (WNW) 23:49:01 437.575/2403.000
BUGSAT 1 26 Jan 23:46:55 23:51:07 55° 287° (WNW) 23:55:17 437.445
TIGRISAT 26 Jan 23:50:43 23:54:32 27° 292° (WNW) 23:58:12 435.000
POPSAT HIP 1 26 Jan 23:55:05 23:59:04 36° 290° (WNW) 00:03:00 437.405
AIST 1 26 Jan 23:55:22 23:58:30 19° 272° (W) 00:01:31
DUCHIFAT 1 26 Jan 23:59:29 00:03:23 33° 290° (WNW) 00:07:12 145.980
SWISSCUBE 27 Jan 00:22:51 00:27:25 50° 72° (ENE) 00:32:03 437.505
Oscar 19 27 Jan 00:25:38 00:28:07 14° 87° (E) 00:30:51 437.125/150
SPROUT 27 Jan 00:29:05 00:32:36 23° 267° (W) 00:36:03 437.525
NANOSAT C BR1 27 Jan 00:34:30 00:37:07 15° 296° (WNW) 00:39:34 145.865
BEESAT 27 Jan 00:39:02 00:43:46 68° 74° (ENE) 00:48:31 436.000
ITUPSAT 1 27 Jan 00:41:10 00:45:53 70° 75° (ENE) 00:50:40 437.325
GONETS M04 27 Jan 00:43:27 00:51:03 36° 86° (E) 00:58:48
ISS 27 Jan 00:44:03 00:46:52 25° 342° (NNW) 00:49:40 145.825
QB50P2 27 Jan 00:48:11 00:49:43 11° 298° (WNW) 00:51:01 145.880/145.840
M-CUBED/EXP-1 PRIME 27 Jan 01:18:55 01:21:43 19° 63° (ENE) 01:24:29 437.505
STARS 27 Jan 01:43:51 01:48:01 42° 71° (ENE) 01:52:16 437.465
KKS-1 27 Jan 01:43:52 01:48:18 64° 73° (ENE) 01:52:47 437.445
AUBIESAT-1 27 Jan 01:53:21 01:57:08 39° 68° (ENE) 02:00:40 437.475
O/OREOS (USA 219) 27 Jan 02:01:24 02:05:45 41° 61° (ENE) 02:10:07 437.305
SWISSCUBE 27 Jan 02:02:21 02:05:39 18° 269° (W) 02:08:47 437.505
Oscar 19 27 Jan 02:02:58 02:08:08 73° 285° (WNW) 02:13:15 437.125/150
BEESAT 2 27 Jan 02:04:13 02:06:44 16° 111° (ESE) 02:09:25 435.950
ITAMSAT 1 27 Jan 02:13:00 02:18:06 50° 99° (E) 02:23:11 435.822/435.867
BEESAT 27 Jan 02:19:50 02:22:12 13° 272° (W) 02:24:19 436.000
BEESAT 3 27 Jan 02:20:04 02:23:30 27° 115° (ESE) 02:27:03 437.485
ISS 27 Jan 02:21:53 02:24:11 17° 2° (N) 02:26:29 145.825
ITUPSAT 1 27 Jan 02:22:09 02:24:24 13° 272° (W) 02:26:23 437.325
GONETS M04 27 Jan 02:39:09 02:47:41 52° 286° (WNW) 02:56:08
AO-7 27 Jan 02:40:57 02:44:45 14° 85° (E) 02:49:10 29.400- 29.500
CUSAT 1 27 Jan 02:44:29 02:48:23 15° 79° (E) 02:52:54 437.405
M-CUBED/EXP-1 PRIME 27 Jan 02:52:41 02:56:34 37° 256° (WSW) 03:00:10 437.505
Gurwin Techsat 1B 27 Jan 02:54:22 02:59:44 83° 103° (ESE) 03:05:04 435.225
MOZHAYETS 4 27 Jan 03:05:16 03:08:29 20° 66° (ENE) 03:11:49
STARS 27 Jan 03:21:31 03:24:45 19° 268° (W) 03:27:52 437.465
AIST 2 27 Jan 03:22:40 03:26:43 45° 118° (ESE) 03:30:51 435.215
HORYU 2 27 Jan 03:23:17 03:27:39 53° 100° (E) 03:32:00 437.375
KKS-1 27 Jan 03:23:22 03:25:29 13° 272° (W) 03:27:22 437.445
RS-15 27 Jan 03:23:32 03:29:12 17° 100° (E) 03:35:40 29.354- 29.394
AUBIESAT-1 27 Jan 03:29:27 03:32:12 17° 261° (W) 03:34:42 437.475
BEESAT 2 27 Jan 03:40:34 03:44:37 51° 308° (NW) 03:48:42 435.950
DANDE 27 Jan 03:40:41 03:47:35 34° 86° (E) 03:55:09 436.750
O/OREOS (USA 219) 27 Jan 03:41:28 03:44:56 21° 258° (WSW) 03:48:16 437.305
Oscar 19 27 Jan 03:45:55 03:46:40 10° 303° (WNW) 03:47:08 437.125/150
JAS-2 27 Jan 03:52:20 03:56:27 21° 92° (E) 04:01:04 435.910
ITAMSAT 1 27 Jan 03:53:16 03:57:18 22° 296° (WNW) 04:01:13 435.822/435.867
BEESAT 3 27 Jan 03:57:50 04:01:34 32° 312° (NW) 04:05:20 437.485
ISS 27 Jan 03:58:25 04:01:25 31° 22° (NNE) 04:04:27 145.825
CUSAT 1 27 Jan 04:22:13 04:30:10 70° 96° (E) 04:38:37 437.405
PRISM 27 Jan 04:22:40 04:24:26 13° 63° (ENE) 04:26:23 437.425
PCSat 27 Jan 04:26:44 04:31:44 40° 113° (ESE) 04:36:49 145.827
AO-7 27 Jan 04:30:47 04:39:10 76° 106° (ESE) 04:47:29 29.400- 29.500
Gurwin Techsat 1B 27 Jan 04:36:10 04:39:06 15° 300° (WNW) 04:41:47 435.225
MOZHAYETS 4 27 Jan 04:41:01 04:45:27 45° 262° (W) 04:49:52
CUBESAT XI-V 27 Jan 04:50:31 04:53:39 19° 65° (ENE) 04:56:55 437.345
YUBILEINY 27 Jan 04:51:39 04:55:24 14° 53° (NE) 04:59:45 435.215
HORYU 2 27 Jan 05:01:06 05:03:58 16° 296° (WNW) 05:06:39 437.375
AIST 2 27 Jan 05:02:07 05:05:34 23° 317° (NW) 05:09:00 435.215
DANDE 27 Jan 05:22:39 05:30:40 61° 286° (WNW) 05:39:17 436.750
RS-15 27 Jan 05:29:02 05:39:52 76° 120° (ESE) 05:50:53 29.354- 29.394
STRAND 1 27 Jan 05:32:31 05:37:11 39° 69° (ENE) 05:41:56 437.568
ISS 27 Jan 05:34:51 05:38:01 43° 220° (SW) 05:41:09 145.825
Cubesat XI-IV 27 Jan 05:36:22 05:40:38 24° 93° (E) 05:45:00 437.490
JAS-2 27 Jan 05:36:30 05:41:55 57° 288° (WNW) 05:47:56 435.910
PRISM 27 Jan 05:55:28 05:59:33 60° 259° (W) 06:03:37 437.425
CUTE-I 27 Jan 05:56:40 06:01:36 36° 96° (E) 06:06:33 437.470
CUSAT 1 27 Jan 06:06:51 06:13:59 30° 296° (WNW) 06:21:05 437.405
PCSat 27 Jan 06:10:23 06:15:16 33° 311° (NW) 06:20:08 145.827
AO-7 27 Jan 06:24:33 06:31:18 28° 305° (NW) 06:37:49 29.400- 29.500
CUBESAT XI-V 27 Jan 06:26:21 06:30:47 47° 261° (W) 06:35:16 437.345
YUBILEINY 27 Jan 06:45:45 06:54:29 66° 78° (ENE) 07:03:14 435.215
DANDE 27 Jan 07:11:25 07:16:12 15° 308° (NW) 07:20:35 436.750
STRAND 1 27 Jan 07:12:16 07:16:32 26° 266° (W) 07:20:45 437.568
Cubesat XI-IV 27 Jan 07:15:51 07:20:59 46° 290° (WNW) 07:26:04 437.490
BRITE-PL 27 Jan 07:18:14 07:19:42 11° 83° (E) 07:21:32 437.365/2234.400
CUTE-I 27 Jan 07:36:54 07:41:37 31° 293° (WNW) 07:46:15 437.470
RS-15 27 Jan 07:43:19 07:53:22 39° 326° (NW) 08:03:30 29.354- 29.394
SEEDS 27 Jan 08:00:42 08:02:18 12° 88° (E) 08:04:08 437.485
COMPASS 1 27 Jan 08:29:27 08:32:37 21° 93° (E) 08:35:53 437.405
UNISAT 6 27 Jan 08:30:45 08:32:42 13° 62° (ENE) 08:34:53 437.425
CANX-2 27 Jan 08:36:04 08:40:03 39° 97° (E) 08:44:02 2200.000
YUBILEINY 27 Jan 08:43:34 08:50:43 28° 277° (W) 08:57:37 435.215
BRITE-PL 27 Jan 08:53:28 08:59:13 82° 102° (ESE) 09:04:46 437.365/2234.400
POLYITAN 1 27 Jan 08:54:19 08:55:50 12° 62° (ENE) 08:57:34 437.675
Oscar 11 27 Jan 08:54:23 08:57:17 18° 91° (E) 09:00:17 145.826/435.025
HO-68 27 Jan 08:56:02 09:03:08 62° 102° (ESE) 09:10:13 435.675
AAUSAT CUBESAT 2 27 Jan 08:57:05 09:00:58 37° 97° (E) 09:04:50 437.432
CUTE 1.7 + AOD 2 27 Jan 09:00:26 09:04:40 68° 101° (ESE) 09:08:52 437.475
GOMX 1 27 Jan 09:01:01 09:06:31 70° 100° (E) 09:11:46 467.674
ANTELSAT 27 Jan 09:04:20 09:08:13 27° 68° (ENE) 09:12:11 437.575/2403.000
BUGSAT 1 27 Jan 09:05:43 09:06:49 11° 62° (ENE) 09:08:08 437.445
DELFI C3 27 Jan 09:06:23 09:09:11 18° 92° (E) 09:12:06 145.870
TIGRISAT 27 Jan 09:13:13 09:17:21 31° 69° (ENE) 09:21:31 435.000
POPSAT HIP 1 27 Jan 09:14:05 09:17:00 19° 66° (ENE) 09:20:03 437.405
DUCHIFAT 1 27 Jan 09:17:58 09:21:02 20° 66° (ENE) 09:24:14 145.980
CUBEBUG 2 27 Jan 09:20:15 09:24:02 25° 93° (E) 09:27:46 437.445
DOVE 4 27 Jan 09:24:21 09:29:40 83° 102° (ESE) 09:34:43 437.250
VERMONT LUNAR 27 Jan 09:24:24 09:27:06 21° 155° (SSE) 09:29:51 437.305
UKube-1 27 Jan 09:28:04 09:31:31 23° 94° (E) 09:35:02 .
CINEMA 3 27 Jan 09:28:44 09:33:33 53° 99° (E) 09:38:09 145.822/145.860
SEEDS 27 Jan 09:34:28 09:38:37 58° 286° (WNW) 09:42:42 437.485
ZACube-1 27 Jan 09:38:02 09:41:47 26° 94° (E) 09:45:30 437.345
DX 1 27 Jan 09:45:39 09:49:44 37° 98° (E) 09:53:49 434.975-435.025
FUNcube-1 27 Jan 09:50:34 09:54:40 35° 96° (E) 09:58:39 145.935
NANOSAT C BR1 27 Jan 09:50:53 09:54:55 44° 72° (ENE) 09:59:02 145.865
50 SAT 27 Jan 09:57:16 09:59:48 16° 91° (E) 10:02:26 437.505
HUMSAT D 27 Jan 09:59:12 10:02:37 24° 93° (E) 10:06:04 437.325/437.525
AISAT 27 Jan 09:59:41 10:03:02 21° 92° (E) 10:06:29 437.250
RS-15 27 Jan 10:01:43 10:10:00 23° 359° (N) 10:18:28 29.354- 29.394
QB50P2 27 Jan 10:03:39 10:07:52 62° 75° (ENE) 10:12:10 145.880/145.840
UNISAT 6 27 Jan 10:04:12 10:08:56 80° 258° (WSW) 10:13:41 437.425
COMPASS 1 27 Jan 10:04:42 10:08:27 32° 290° (WNW) 10:12:09 437.405
UWE-3 27 Jan 10:04:43 10:09:15 62° 100° (E) 10:13:37 435.000/436.395/437.385
PHONESAT 2.4 27 Jan 10:09:18 10:12:19 25° 157° (SSE) 10:15:23 2401.200-2431.200
CANX-2 27 Jan 10:12:43 10:15:46 19° 294° (WNW) 10:18:42 2200.000
QB50P1 27 Jan 10:13:46 10:18:02 80° 78° (ENE) 10:22:21 145.935-145.965
BEESAT 2 27 Jan 10:22:27 10:25:14 17° 40° (NE) 10:28:05 435.950
POLYITAN 1 27 Jan 10:26:58 10:31:16 73° 258° (WSW) 10:35:37 437.675
VELOX 1 27 Jan 10:28:33 10:32:48 40° 98° (E) 10:37:02 145.980
Oscar 11 27 Jan 10:29:37 10:33:43 41° 288° (WNW) 10:37:45 145.826/435.025
AAUSAT CUBESAT 2 27 Jan 10:33:25 10:36:25 19° 293° (WNW) 10:39:19 437.432
BRITE-PL 27 Jan 10:33:30 10:37:03 17° 299° (WNW) 10:40:21 437.365/2234.400
BUGSAT 1 27 Jan 10:37:43 10:41:47 72° 258° (WSW) 10:45:57 437.445
CUTE 1.7 + AOD 2 27 Jan 10:38:25 10:40:07 12° 297° (WNW) 10:41:37 437.475
BEESAT 3 27 Jan 10:38:33 10:42:00 25° 45° (NE) 10:45:28 437.485
GOMX 1 27 Jan 10:40:23 10:44:04 18° 298° (WNW) 10:47:29 467.674
ANTELSAT 27 Jan 10:40:35 10:44:55 34° 264° (W) 10:49:12 437.575/2403.000
DELFI C3 27 Jan 10:40:53 10:44:36 35° 289° (WNW) 10:48:17 145.870
CUBEBUG 1 27 Jan 10:44:16 10:47:54 25° 94° (E) 10:51:36 437.445
HO-68 27 Jan 10:44:30 10:50:27 28° 300° (WNW) 10:56:13 435.675
SO-50 27 Jan 10:46:30 10:50:55 53° 119° (ESE) 10:55:32 436.795
AIST 1 27 Jan 10:48:18 10:51:26 21° 89° (E) 10:54:41
